Location: Bemmer
(51.5498°N, 5.6249°E)
Time: 01:11:06
(UTC+00:00)

SL-8 Rocket - Pass Details

Date: 03 March 2021
Orbit: 957 x 991 km, 82.9° (Epoch: 13 April)

Event Time Altitude Azimuth Distance (km) Brightness Sun altitude
Rises 19:52:09 0° 199° (SSW) 3,668 7.0 -23.8°
Reaches altitude 10° 19:54:42 10° 203° (SSW) 2,720 6.3 -24.2°
Maximum altitude 20:00:52 63° 284° (WNW) 1,081 4.4 -25.1°
Drops below altitude 10° 20:07:02 10° 5° (N) 2,715 6.5 -26.0°
Sets 20:09:35 0° 9° (N) 3,662 7.2 -26.3°
